[[{"header":{"parameterUnit":"m.s-1","parameterCategory":1,"la1":30.2991,"la2":30.254,"lo1":-89.0895,"lo2":-89.0444,"dy":0.0017,"dx":0.0017,"nx":28,"ny":28,"refTime":"2024-08-23T03:00:00:Z","depth":0,"parameterNumber":2,"parameterNumberName":"U-component_of_WINDS"},"data":[0,0,0,0,0,0,0,0,0,0,0,0,0,0,0,0,0,0,0,0,0,0,0,0,0,0,0,0,0,0,0,0,0,0,0,0,0,0,0,0,0,0,0,0,0,0,0,0,0,0,0,0,0,0,0,0,0,0,-5.8285,-5.8287,0,-5.839,-5.8391,-5.8392,-5.8286,-5.8281,-5.8277,-5.8273,-5.8373,-5.8379,-5.8385,0,0,0,0,0,0,0,0,0,0,0,0,0,-5.7985,-5.7991,-5.8285,-5.8287,-5.8288,-5.839,-5.8391,-5.8393,-5.8286,-5.8281,-5.8276,-5.8271,-5.8371,-5.8378,-5.8386,0,0,0,0,0,0,0,0,0,0,0,0,0,-5.8105,-5.7993,-5.8285,-5.8247,-5.8245,-5.8389,-5.8391,-5.8393,-5.8287,-5.8281,-5.8275,-5.8269,-5.8368,-5.8377,-5.8387,-5.8571,0,0,-5.8417,-5.8421,0,0,0,0,0,0,0,0,-5.8098,-5.8116,-5.8252,-5.825,-5.8248,-5.8319,-5.8321,-5.8453,-5.8289,-5.8271,-5.8273,-5.8266,-5.8359,-5.8369,-5.8402,-5.8576,-5.858,-5.8418,-5.8424,-5.8428,-5.8431,0,0,0,0,0,0,0,-5.809,-5.8111,-5.8326,-5.8254,-5.8251,-5.8222,-5.8233,-5.8346,-5.8348,-5.8272,-5.8265,-5.8279,-5.8357,-5.8393,-5.8404,-5.8582,-5.8417,-5.8426,-5.8432,-5.8436,-5.8909,-5.8916,0,0,0,0,0,0,-5.8087,-5.8105,-5.8323,-5.8329,-5.8157,-5.8233,-5.8244,-5.8302,-5.8347,-5.8348,-5.8284,-5.8274,-5.8379,-5.8392,-5.8407,-5.8624,-5.8428,-5.8437,-5.8442,-5.8903,-5.8911,-5.8918,0,0,0,0,0,0,-5.8081,-5.8108,-5.8319,-5.8215,-5.824,-5.8245,-5.831,-5.8307,-5.8343,-5.8356,-5.8355,-5.8321,-5.8375,-5.8393,-5.8531,-5.8626,-5.8441,-5.845,-5.8895,-5.8905,-5.8915,-5.906,0,0,0,0,0,0,-5.8073,-5.8106,-5.8178,-5.8218,-5.8246,-5.8445,-5.8316,-5.8314,-5.8361,-5.8349,-5.8391,-5.8391,-5.8372,-5.8517,-5.8541,-5.8636,-5.8458,-5.8886,-5.8899,-5.8911,-5.9047,-5.9074,-5.9097,0,0,0,0,0,-5.8063,-5.8214,-5.8183,-5.8209,-5.8337,-5.845,-5.8466,-5.8442,-5.837,-5.844,-5.8448,-5.839,-5.8612,-5.8532,-5.8558,-5.8657,-5.888,-5.8896,-5.891,-5.9036,-5.9069,-5.9097,0,0,0,0,0,0,-5.8183,-5.8218,-5.8184,-5.8353,-5.84,-5.8432,-5.8521,-5.8478,-5.8544,-5.8529,-5.8495,-5.8505,-5.8651,-5.8668,-5.8579,-5.8837,-5.8734,-5.8755,-5.882,-5.8852,-5.8877,-5.8868,-5.8466,0,0,0,0,0,-5.823,-5.8322,-5.8347,-5.8493,-5.8519,-5.8517,-5.8565,-5.8543,-5.8588,-5.8607,-5.8625,-5.8669,-5.8748,-5.8801,-5.8875,-5.905,-5.9055,-5.913,-5.9155,-5.9176,-5.9194,-5.9285,-5.9317,-5.8968,-5.8968,-5.8967,0,0,-5.8326,-5.8357,-5.8416,-5.8518,-5.8552,-5.8645,-5.8533,-5.8637,-5.8705,-5.8621,-5.8753,-5.8768,-5.8815,-5.8972,-5.9042,-5.899,-5.9292,-5.9195,-5.9212,-5.9218,-5.9304,-5.9337,-5.9366,-5.8978,-5.8976,-5.8975,0,0,-5.8548,-5.8583,-5.8708,-5.8744,-5.8797,-5.8794,-5.8825,-5.8864,-5.8871,-5.9004,-5.8943,-5.9021,-5.916,-5.9195,-5.9231,-5.9468,-5.9415,-5.9493,-5.9623,-5.9712,-5.974,-5.9764,-5.9846,-5.9876,-5.9511,-5.9511,-5.9512,0,-5.866,-5.8801,-5.8776,-5.8885,-5.893,-5.8862,-5.8986,-5.9022,-5.9096,-5.9127,-5.9069,-5.9241,-5.9268,-5.9431,-5.9489,-5.9521,-5.9552,-5.9487,-5.9738,-5.9762,-5.9784,-5.9862,-5.9893,-5.952,-5.9519,-5.9518,-5.9517,0,-5.8935,-5.9033,-5.9127,-5.9203,-5.9259,-5.9375,-5.9365,-5.9424,-5.9397,-5.94,-5.9534,-5.9564,-5.9642,-5.968,-5.9654,-5.9839,-5.9805,-5.9744,-5.9639,-5.9827,-5.9899,-5.9929,-5.9533,-5.953,-5.9527,-5.9525,0,0,-5.9235,-5.9296,-5.933,-5.9363,-5.9417,-5.9491,-5.9602,-5.9681,-5.9731,-5.9785,-5.9875,-5.9994,-5.9937,-5.9979,-5.9956,-6.0035,-6.0217,-5.9963,-5.9963,-6.0007,-6.0419,-6.0464,-6.0499,-6.0184,-6.0189,-6.0194,-6.0415,0,-5.9457,-5.9654,-5.9635,-5.982,-5.9909,-5.9845,-5.9942,-5.9984,-5.999,-6.0063,-6.0068,-6.0152,-6.0073,-6.0097,-6.0172,-6.0179,-6.0299,-6.0163,-6.0264,-6.0268,-6.0252,-6.0537,-6.0584,-6.0791,-6.0443,-6.0448,-6.0451,0,-5.9742,-5.9808,-6.0003,-6.0042,-6.0078,-6.0166,-6.0236,-6.0309,-6.0354,-6.0352,-6.0399,-6.0362,-6.0471,-6.0367,-6.0515,-6.0423,-6.0463,-6.0473,-6.048,-6.0487,-6.0369,-6.0548,-6.0856,-6.0887,-6.0496,-6.0492,-6.0489,0,-5.9938,-6.0075,-6.0209,-6.0239,-6.0289,-6.0351,-6.0374,-6.0414,-6.0462,-6.0523,-6.0553,-6.0625,-6.0663,-6.0718,-6.0701,-6.0627,-6.0852,-6.0747,-6.0851,-6.0851,-6.0899,-6.0896,-6.1216,-6.093,-6.093,-6.0929,-6.0928,0,-6.0187,-6.0308,-6.0297,-6.038,-6.0512,-6.0488,-6.062,-6.0634,-6.067,-6.0751,-6.0701,-6.0778,-6.0752,-6.0827,-6.0814,-6.0937,-6.0956,-6.0955,-6.0949,-6.0958,-6.0958,-6.0982,-6.0966,-6.0937,-6.0935,-6.0934,-6.0932,0,-6.0427,-6.0425,-6.0567,-6.0603,-6.0615,-6.0711,-6.074,-6.0816,-6.0818,-6.0922,-6.0944,-6.0947,-6.1032,-6.1022,-6.1116,-6.1108,-6.126,-6.1239,-6.1246,-6.124,-6.1344,-6.1333,-6.1688,-6.1732,-6.1421,-6.1424,-6.1426,0,-6.0584,-6.0676,-6.0723,-6.0775,-6.0804,-6.0888,-6.0938,-6.0917,-6.097,-6.1029,-6.1097,-6.1178,-6.1242,-6.1381,-6.139,-6.1461,-6.1439,-6.1559,-6.1449,-6.1455,-6.1438,-6.1432,-6.1439,-6.1579,-6.1583,-6.1586,-6.1588,0,-6.0863,-6.0858,-6.0933,-6.1008,-6.1069,-6.1126,-6.1177,-6.1222,-6.1206,-6.1268,-6.1356,-6.1406,-6.1504,-6.1584,-6.1652,-6.1672,-6.1627,-6.1623,-6.1651,-6.1659,-6.1658,-6.1657,-6.1301,-6.1614,-6.1612,-6.161,-6.1608,-6.1607,-6.1065,-6.1143,-6.1188,-6.1272,-6.131,-6.1359,-6.1432,-6.1444,-6.1518,-6.1597,-6.158,-6.1679,-6.172,-6.1807,-6.1834,-6.1909,-6.1865,-6.1905,-6.1915,-6.1925,-6.1936,-6.1649,-6.1922,-6.1921,-6.192,-6.192,-6.1919,0,-6.1338,-6.1365,-6.1443,-6.1518,-6.1584,-6.1539,-6.1593,-6.165,-6.1739,-6.1782,-6.1847,-6.1947,-6.2025,-6.204,-6.2114,-6.2171,-6.2151,-6.219,-6.2184,-6.2189,-6.1972,-6.194,-6.2204,-6.2204,-6.2204,-6.2204,-6.2204,-6.2204,-6.1488,-6.1617,-6.1618,-6.1764,-6.1788,-6.1887,-6.1921,-6.1965,-6.2,-6.2115,-6.218,-6.2191,-6.2222,-6.2298,-6.2366,-6.2368,-6.2396,-6.2443,-6.2437,-6.2233,-6.2205,-6.2177,-6.2147,-6.245,-6.245,-6.2646,-6.2648,-6.265]},{"header":{"parameterUnit":"m.s-1","parameterCategory":1,"la1":30.2991,"la2":30.254,"lo1":-89.0895,"lo2":-89.0444,"dy":0.0017,"dx":0.0017,"nx":28,"ny":28,"refTime":"2024-08-23T03:00:00:Z","depth":0,"parameterNumber":3,"parameterNumberName":"V-component_of_WINDS"},"data":[0,0,0,0,0,0,0,0,0,0,0,0,0,0,0,0,0,0,0,0,0,0,0,0,0,0,0,0,0,0,0,0,0,0,0,0,0,0,0,0,0,0,0,0,0,0,0,0,0,0,0,0,0,0,0,0,0,0,0.0861,0.086,0,0.0773,0.0772,0.0771,0.0728,0.0728,0.0728,0.0728,0.0635,0.0632,0.063,0,0,0,0,0,0,0,0,0,0,0,0,0,0.099,0.0988,0.0861,0.086,0.0859,0.0773,0.0772,0.0771,0.0728,0.0728,0.0728,0.0728,0.0636,0.0633,0.063,0,0,0,0,0,0,0,0,0,0,0,0,0,0.0921,0.0987,0.0862,0.0827,0.0823,0.0774,0.0772,0.0771,0.0728,0.0728,0.0728,0.0728,0.0636,0.0633,0.0629,0.0606,0,0,0.0618,0.0616,0,0,0,0,0,0,0,0,0.0925,0.0917,0.0833,0.083,0.0825,0.0761,0.0783,0.0715,0.0728,0.0764,0.0728,0.0728,0.0677,0.067,0.0653,0.0602,0.0598,0.0618,0.0615,0.0614,0.0613,0,0,0,0,0,0,0,0.093,0.092,0.0826,0.0832,0.0827,0.0816,0.0806,0.077,0.0721,0.0761,0.0757,0.0748,0.0674,0.0657,0.0651,0.0597,0.0618,0.0614,0.0612,0.0611,0.0522,0.0522,0,0,0,0,0,0,0.0941,0.0924,0.0829,0.0824,0.0876,0.0813,0.0802,0.0782,0.0722,0.0712,0.0748,0.0746,0.0663,0.0655,0.0647,0.0616,0.0614,0.061,0.0608,0.0523,0.0522,0.0522,0,0,0,0,0,0,0.0944,0.0933,0.0833,0.0873,0.086,0.0811,0.0788,0.078,0.0762,0.0712,0.0703,0.0739,0.0663,0.0652,0.0617,0.0612,0.0609,0.0605,0.0523,0.0523,0.0522,0.0555,0,0,0,0,0,0,0.0947,0.0934,0.0925,0.0873,0.0858,0.0805,0.0788,0.0778,0.0756,0.0753,0.0701,0.0692,0.0662,0.0623,0.0613,0.0607,0.0602,0.0523,0.0523,0.0522,0.0554,0.0556,0.0557,0,0,0,0,0,0.0952,0.0937,0.0925,0.0914,0.0846,0.0805,0.0796,0.0762,0.0756,0.0747,0.0714,0.0694,0.0615,0.062,0.0609,0.0601,0.0523,0.0523,0.0522,0.0553,0.0555,0.0557,0,0,0,0,0,0,0.0988,0.093,0.0915,0.0883,0.0849,0.0797,0.0784,0.0765,0.0731,0.073,0.0688,0.0677,0.0645,0.062,0.0626,0.0576,0.0567,0.0564,0.0594,0.0596,0.0597,0.0604,0.0599,0,0,0,0,0,0.0993,0.0965,0.0915,0.0891,0.0875,0.0833,0.0814,0.0791,0.0754,0.0739,0.0704,0.0668,0.0635,0.0614,0.0581,0.055,0.0538,0.054,0.0542,0.0543,0.0541,0.0523,0.0523,0.0521,0.0521,0.0521,0,0,0.1001,0.0966,0.0951,0.0898,0.0869,0.0841,0.0821,0.0792,0.077,0.0734,0.0699,0.0672,0.0629,0.0596,0.058,0.0574,0.0539,0.0543,0.0545,0.0542,0.0523,0.0523,0.0524,0.0521,0.0521,0.0521,0,0,0.1002,0.0973,0.095,0.0922,0.0879,0.0851,0.0846,0.0796,0.0778,0.0742,0.0714,0.0688,0.0632,0.0603,0.058,0.0572,0.0551,0.0562,0.057,0.0553,0.0554,0.0553,0.055,0.0549,0.056,0.056,0.056,0,0.1018,0.0975,0.094,0.0913,0.089,0.0858,0.0834,0.0808,0.0756,0.0741,0.0735,0.0665,0.0634,0.0594,0.0592,0.0575,0.0567,0.0567,0.0557,0.0556,0.0555,0.0552,0.055,0.0562,0.0562,0.0562,0.0561,0,0.0996,0.0967,0.0953,0.0905,0.0881,0.0856,0.0817,0.0797,0.0776,0.0749,0.0713,0.0675,0.0634,0.0622,0.0602,0.0579,0.0577,0.0565,0.0554,0.0558,0.0553,0.0552,0.0564,0.0564,0.0563,0.0563,0,0,0.1016,0.095,0.0946,0.0924,0.0874,0.085,0.0824,0.0784,0.0768,0.0733,0.0709,0.0663,0.0652,0.0627,0.0602,0.0588,0.0583,0.0577,0.0575,0.0579,0.0556,0.0565,0.0564,0.057,0.0569,0.0569,0.0559,0,0.101,0.0961,0.0929,0.0893,0.0865,0.0834,0.0811,0.0778,0.0752,0.0724,0.0695,0.0663,0.065,0.0635,0.0619,0.0587,0.0578,0.0587,0.0546,0.0545,0.0557,0.0562,0.0571,0.0564,0.0557,0.0557,0.0557,0,0.0995,0.0963,0.0924,0.0878,0.0865,0.0845,0.0806,0.078,0.0742,0.0724,0.0697,0.0673,0.0643,0.0636,0.0594,0.0601,0.0583,0.0565,0.0563,0.0558,0.0551,0.0556,0.0561,0.0559,0.0554,0.0554,0.0554,0,0.1013,0.096,0.093,0.0912,0.0858,0.0844,0.0821,0.0783,0.0761,0.0728,0.0713,0.0676,0.0656,0.0628,0.0594,0.0592,0.0555,0.0545,0.0539,0.0539,0.0531,0.0532,0.0533,0.0521,0.0521,0.0521,0.0521,0,0.1009,0.0986,0.0937,0.0918,0.0892,0.0856,0.0831,0.0805,0.0772,0.0747,0.0718,0.0695,0.0652,0.0624,0.0598,0.0567,0.0558,0.0542,0.0535,0.0544,0.0546,0.0531,0.053,0.052,0.0521,0.0521,0.0521,0,0.1025,0.0991,0.0956,0.0908,0.0895,0.0878,0.0837,0.0817,0.079,0.0759,0.075,0.0707,0.0673,0.0637,0.059,0.0572,0.0542,0.0532,0.0555,0.0551,0.0546,0.0547,0.0536,0.0533,0.0524,0.0524,0.0524,0,0.1024,0.1006,0.0956,0.0938,0.0916,0.0887,0.0865,0.083,0.0808,0.0764,0.075,0.0713,0.0682,0.0629,0.0593,0.0557,0.0546,0.0545,0.054,0.055,0.0545,0.0547,0.0545,0.0546,0.0547,0.0547,0.0547,0,0.1026,0.101,0.0981,0.0945,0.092,0.089,0.0859,0.0846,0.0804,0.0781,0.0747,0.0723,0.0675,0.0639,0.0599,0.0574,0.0554,0.0549,0.0545,0.0554,0.0568,0.056,0.0558,0.0549,0.0549,0.0549,0.0549,0.0549,0.1032,0.1015,0.0978,0.0946,0.0919,0.0891,0.087,0.0841,0.0812,0.0771,0.0752,0.0717,0.0679,0.0624,0.06,0.0571,0.0565,0.056,0.0558,0.0558,0.056,0.0573,0.0564,0.0564,0.0564,0.0563,0.0563,0,0.1033,0.1008,0.0979,0.0937,0.0911,0.0895,0.086,0.084,0.081,0.0777,0.0748,0.0708,0.0673,0.0635,0.0598,0.0583,0.0572,0.0574,0.0574,0.0569,0.0568,0.0574,0.0583,0.0583,0.0583,0.0583,0.0583,0.0583,0.103,0.1,0.098,0.0936,0.0911,0.0877,0.0858,0.0832,0.0806,0.0763,0.0734,0.071,0.0675,0.0636,0.0603,0.0593,0.058,0.0585,0.0572,0.0571,0.0569,0.0568,0.0574,0.0582,0.0582,0.0575,0.0575,0.0575]}]]